Temperature
16 16 16 16 16 16 16 16 16 14 14 14 13 13 13 13 13 13 13 13 13 14 13 13 13 13 12 13 13 13 14 14 14 14 14 14 14 14
16 16 16 16 16 16 16 16 16 16 16 15 14 14 13 13 13 12 12 12 13 13 13 13 13 13 12 12 13 13 13 13 13 13 14 14 14 13
16 16 16 16 15 15 15 15 15 15 16 16 14 13 13 12 12 12 12 12 12 13 13 13 13 13 13 13 13 13 13 13 13 13 13 13 13 12
16 16 16 15 15 15 15 15 15 15 15 15 15 13 13 12 12 12 11 11 12 12 13 13 13 12 12 12 12 12 12 13 13 13 13 12 12 12
16 16 15 15 14 14 14 15 15 15 15 15 15 14 13 12 12 12 11 11 11 11 12 13 12 12 12 11 11 11 12 13 13 12 12 12 12 12
15 15 15 15 14 14 14 15 15 15 15 15 15 15 13 12 12 12 11 11 11 11 12 12 12 11 10 10 10 10 11 11 12 12 12 12 12 11
15 15 15 15 15 14 14 15 15 15 15 15 15 15 14 14 14 13 11 11 11 11 11 11 11 10 10 9 9 9 10 10 10 10 10 10 10 10
15 15 15 15 15 15 15 15 15 15 15 15 15 15 16 16 15 14 12 11 11 11 11 11 10 10 9 9 9 9 9 9 10 9 9 9 9 9
15 15 15 15 15 15 15 15 15 15 16 16 16 16 16 16 15 14 13 12 11 10 10 10 10 10 9 9 9 9 9 9 9 9 9 9 9 9
15 15 15 15 15 15 15 15 15 15 15 16 16 16 16 15 15 14 13 12 10 9 9 9 9 9 9 8 8 8 9 9 9 9 9 9 9 9
15 14 14 15 15 15 15 15 15 15 15 15 15 15 15 15 14 14 12 11 10 10 9 9 9 9 9 8 8 8 8 9 9 9 9 9 9 9
14 13 13 14 14 14 14 14 14 15 15 15 15 15 14 14 14 14 14 13 12 11 10 9 10 9 9 9 9 9 9 9 9 9 9 9 9 9
13 13 13 13 13 13 13 13 14 14 14 14 14 15 15 14 14 14 14 13 13 13 12 11 10 10 9 9 9 9 9 9 9 9 9 9 9 9
13 13 13 12 13 13 12 12 12 13 13 14 14 14 15 15 15 15 14 13 12 12 11 11 11 11 10 10 9 10 9 9 9 9 9 9 8 9
13 13 13 13 12 12 12 12 12 12 12 13 13 14 14 15 14 14 13 12 11 11 10 10 10 10 10 10 10 9 9 9 9 9 9 9 9 9
12 12 12 12 12 12 12 11 11 11 12 12 13 13 13 14 14 13 13 12 11 11 11 11 10 10 9 10 10 10 9 9 9 9 9 9 9 9
12 12 12 12 12 11 11 11 11 11 11 11 11 12 12 13 13 12 12 12 12 12 11 11 10 10 9 9 9 9 9 9 9 9 9 9 9 9
11 11 11 11 11 11 11 10 10 10 10 10 10 11 11 12 12 12 12 12 12 11 11 11 10 10 9 9 9 9 9 9 8 8 8 8 9 9
11 11 11 11 11 10 10 10 10 10 10 10 10 11 11 11 11 11 12 11 11 11 11 10 10 10 9 9 9 9 9 9 9 8 8 8 8 9
10 10 10 10 10 10 10 10 10 10 10 10 10 10 10 10 10 11 11 11 11 11 10 10 10 9 9 9 9 9 9 8 9 9 8 8 8 8
10 10 10 10 10 10 10 10 10 10 10 10 10 10 10 10 10 10 10 10 10 10 11 11 10 9 9 8 9 9 9 8 8 8 8 8 8 8
9 9 9 9 9 9 9 9 10 10 10 10 10 10 10 10 10 10 10 10 11 11 11 10 10 9 9 9 9 9 8 8 7 7 7 7 7 7
9 9 9 9 9 9 9 9 9 9 9 9 9 9 9 9 10 10 10 10 10 10 10 10 9 9 9 9 8 8 8 7 7 7 7 7 6 6
Wind_Speed
7 8 6 5 5 6 8 10 8 6 6 4 3 4 9 11 12 11 10 11 10 10 11 13 14 15 16 17 18 20 22 22 22 21 20 20 19 18
6 7 7 6 5 5 6 7 5 6 5 5 3 5 9 10 11 11 10 9 9 9 10 11 11 12 13 14 16 17 17 19 21 23 23 24 24 23
7 8 8 8 7 6 6 7 6 5 5 3 2 5 5 7 9 11 11 8 8 9 9 9 10 11 11 12 14 15 15 16 18 20 21 21 21 21
10 9 9 8 10 8 8 9 7 5 5 5 3 5 5 7 7 7 7 5 7 9 8 8 9 10 11 12 13 14 15 15 16 18 20 20 19 18
10 10 10 9 10 8 9 9 8 7 5 6 5 4 3 5 6 5 5 3 7 8 7 6 7 9 11 12 13 14 15 16 15 16 18 18 17 16
9 10 10 11 11 11 10 10 9 8 6 8 7 7 4 5 6 5 3 1 2 6 6 4 5 6 9 11 12 14 16 18 19 19 18 17 16 15
8 9 10 13 14 13 11 10 11 10 9 9 10 7 5 7 9 5 4 3 1 2 2 2 3 3 3 8 11 12 14 16 17 18 18 17 15 13
8 8 9 11 14 17 16 18 18 16 14 10 9 11 10 7 7 6 5 4 3 2 3 2 1 0 1 3 9 11 12 13 14 14 14 14 12 11
8 7 6 7 10 10 14 20 21 23 22 15 13 11 12 13 13 10 7 5 5 6 5 3 2 3 5 6 10 11 12 12 12 11 11 10 9 8
8 8 7 7 7 9 8 10 11 14 17 15 14 14 12 13 16 13 8 6 5 4 6 4 4 4 4 8 12 13 12 12 11 10 10 10 9 8
6 7 8 7 10 11 8 9 10 9 13 14 13 12 14 18 18 10 10 7 3 4 4 5 4 3 2 3 11 15 15 14 13 13 12 11 9 7
5 7 10 10 11 13 9 9 11 10 10 10 9 10 11 17 24 16 13 10 5 5 6 5 5 4 3 3 6 12 14 14 14 14 14 13 11 8
6 5 5 11 12 12 10 8 10 9 9 9 8 7 8 10 12 13 12 11 9 5 8 7 5 4 5 3 3 6 11 10 12 13 16 15 13 10
5 5 5 9 11 12 8 7 7 7 5 5 6 8 9 10 11 11 13 13 12 7 15 12 5 6 6 4 4 3 6 9 10 10 13 14 13 13
4 7 7 7 9 8 9 10 8 5 5 5 7 9 9 8 7 7 6 8 7 5 15 15 7 6 6 6 5 4 4 5 10 9 9 11 11 11
5 7 7 5 3 4 6 6 4 5 6 6 6 4 5 6 6 5 5 5 4 3 5 13 13 8 7 5 5 5 5 4 5 7 7 7 11 15
7 4 3 3 2 2 3 3 3 4 4 3 4 5 5 6 5 5 5 5 6 6 4 3 6 8 6 6 5 6 6 4 4 5 6 6 7 13
7 4 4 5 5 5 5 4 4 4 4 3 4 4 5 6 5 4 4 5 6 6 6 4 4 3 2 1 5 6 6 6 5 6 6 6 7 9
4 4 5 5 5 5 5 5 4 4 3 3 3 4 4 5 5 4 5 4 5 5 5 5 5 6 6 6 5 8 7 5 4 5 6 7 7 6
3 4 5 5 5 5 5 5 4 4 4 4 4 5 6 5 5 5 6 5 5 5 4 4 5 6 9 7 5 4 7 7 5 5 4 4 5 6
4 4 5 5 5 6 5 5 5 4 4 4 5 6 7 6 6 6 6 7 6 5 6 6 7 8 3 3 1 3 4 8 11 6 4 3 3 2
5 5 5 5 5 6 6 5 5 5 5 5 5 6 7 6 7 7 7 6 6 6 6 4 3 4 5 6 7 6 4 4 5 13 12 10 6 5
4 5 4 4 5 5 5 6 7 6 6 6 6 5 6 5 5 5 6 6 5 5 5 4 3 4 5 6 6 6 6 4 2 2 5 12 18 17
Wind_Direction
199 190 190 195 191 178 164 160 152 166 193 177 169 173 148 130 115 94 73 66 59 51 52 57 58 59 57 58 63 69 74 77 79 81 84 89 94 105
207 200 189 183 187 174 169 162 145 148 168 177 172 160 162 142 128 108 86 73 70 64 58 60 66 75 74 70 71 73 80 86 86 82 79 78 80 83
218 207 196 174 180 179 172 166 152 139 139 152 126 142 145 145 132 115 99 81 78 78 72 70 71 82 89 82 78 78 82 88 93 96 93 89 88 90
216 203 199 184 179 182 178 180 173 151 137 145 134 156 153 156 142 126 120 109 97 91 84 80 76 79 92 92 87 84 87 92 96 102 103 103 102 102
209 199 199 188 185 181 181 179 179 170 142 147 153 157 135 153 135 118 114 127 117 103 93 87 89 86 92 98 93 88 89 90 94 101 107 109 110 112
205 199 199 197 192 184 184 178 170 163 148 153 152 154 143 152 142 137 141 195 138 112 104 94 113 111 110 111 107 101 94 90 87 88 96 106 113 117
200 199 203 202 195 188 187 181 170 163 160 157 158 161 165 173 177 163 154 157 128 118 99 55 73 62 98 131 127 119 108 100 94 92 92 96 104 117
201 201 208 206 203 197 193 187 178 171 169 166 170 184 189 179 159 163 142 149 190 191 133 162 132 142 278 142 145 138 128 119 113 111 109 108 109 116
188 180 186 183 184 191 200 194 190 183 176 170 177 191 189 186 175 172 168 163 178 168 136 172 187 199 232 204 174 162 152 145 141 140 138 136 136 142
173 170 168 162 164 165 171 184 191 192 188 183 189 194 191 184 185 181 160 129 91 134 146 165 189 207 219 219 197 182 172 167 167 170 168 165 166 169
158 161 167 172 182 168 158 168 181 194 199 199 197 193 182 175 171 155 154 154 158 186 180 153 166 169 203 238 221 202 191 188 189 192 191 190 190 193
154 175 181 175 175 173 173 174 185 192 186 198 200 191 179 177 179 181 176 174 156 184 190 155 154 142 195 249 230 223 209 206 206 206 202 202 200 196
162 175 192 174 161 166 173 189 199 185 184 188 189 179 172 177 186 187 183 179 174 184 177 153 154 160 172 204 232 223 215 213 214 215 213 213 212 210
172 174 180 173 158 153 158 177 181 170 169 173 175 177 182 187 190 187 187 190 188 174 173 164 153 167 161 169 216 221 210 218 212 212 214 216 219 223
164 167 172 182 172 164 172 180 180 180 182 184 191 193 192 181 156 150 157 177 182 170 169 178 160 161 165 175 185 179 191 214 206 206 211 213 216 215
126 131 125 136 157 176 181 188 191 203 202 201 197 173 140 140 152 153 155 159 173 218 191 192 183 164 177 180 169 185 188 202 202 204 205 219 228 225
128 114 119 137 174 210 211 196 187 194 197 171 155 149 156 158 158 151 146 154 175 192 193 159 150 169 174 169 177 197 195 212 215 194 193 226 237 229
134 154 172 184 199 210 213 206 198 200 194 165 143 149 164 172 165 151 148 161 184 192 187 173 142 120 96 266 200 192 196 212 207 189 184 201 235 231
141 170 185 196 206 212 217 211 202 195 178 159 144 152 169 177 176 177 168 164 185 190 186 167 160 162 194 235 252 206 192 203 196 196 199 203 220 229
170 179 196 204 208 212 215 216 207 188 179 176 168 166 174 178 183 188 184 178 179 180 186 180 181 186 204 218 225 245 215 197 194 207 212 214 245 269
205 195 193 196 204 206 208 205 197 192 187 178 182 180 178 176 186 192 188 188 179 182 201 216 218 204 164 111 178 267 264 224 217 203 192 191 231 268
212 211 204 200 200 201 199 195 194 192 189 187 185 183 181 180 186 188 186 187 194 198 212 221 185 158 169 199 226 238 256 272 252 227 220 209 182 206
218 221 218 209 205 199 198 200 203 204 196 190 183 177 171 174 176 176 183 188 190 198 205 201 179 182 200 209 225 235 242 252 265 259 249 238 238 243
Height
1532 1533 1535 1537 1539 1540 1542 1543 1545 1547 1549 1550 1551 1552 1553 1554 1554 1554 1553 1552 1551 1550 1548 1548 1548 1547 1547 1546 1545 1544 1544 1544 1543 1543 1543 1544 1545 1545
1527 1529 1530 1532 1534 1536 1538 1540 1542 1544 1545 1546 1548 1549 1551 1552 1553 1553 1553 1552 1551 1549 1549 1548 1548 1548 1548 1548 1548 1547 1547 1547 1546 1545 1545 1546 1546 1547
1522 1523 1525 1527 1529 1531 1534 1536 1538 1541 1543 1544 1546 1548 1549 1550 1551 1552 1552 1552 1551 1549 1549 1548 1548 1548 1548 1548 1549 1549 1549 1549 1548 1548 1548 1548 1549 1550
1517 1518 1520 1522 1524 1526 1529 1531 1534 1537 1540 1542 1543 1544 1546 1548 1549 1550 1551 1551 1550 1549 1548 1548 1548 1547 1547 1548 1548 1549 1549 1549 1549 1548 1549 1550 1551 1552
1511 1512 1514 1516 1518 1520 1523 1526 1529 1533 1536 1540 1541 1542 1543 1545 1546 1548 1550 1550 1549 1548 1547 1547 1547 1547 1546 1547 1548 1549 1549 1549 1549 1549 1549 1551 1552 1553
1506 1507 1509 1511 1512 1514 1517 1521 1524 1528 1532 1536 1538 1539 1541 1542 1543 1545 1547 1548 1548 1547 1547 1547 1546 1546 1546 1547 1547 1548 1549 1549 1549 1550 1550 1552 1553 1555
1502 1503 1505 1507 1508 1511 1513 1517 1520 1523 1528 1532 1534 1536 1537 1538 1539 1542 1544 1546 1546 1546 1546 1546 1546 1545 1545 1546 1547 1547 1548 1549 1550 1551 1552 1553 1554 1556
1498 1499 1501 1503 1505 1507 1510 1513 1516 1519 1522 1526 1529 1532 1534 1535 1537 1538 1540 1542 1543 1545 1545 1546 1545 1545 1545 1546 1547 1547 1548 1549 1550 1552 1553 1554 1556 1557
1494 1496 1498 1500 1502 1504 1507 1510 1512 1516 1519 1522 1525 1528 1531 1533 1534 1535 1537 1539 1541 1543 1544 1544 1544 1544 1545 1546 1547 1548 1549 1550 1551 1553 1554 1555 1556 1557
1490 1492 1494 1496 1498 1500 1503 1506 1509 1512 1515 1518 1522 1525 1529 1531 1531 1533 1535 1538 1539 1540 1542 1543 1543 1543 1544 1545 1546 1548 1549 1550 1551 1552 1553 1554 1555 1555
1485 1487 1490 1493 1495 1497 1500 1503 1506 1509 1512 1514 1518 1521 1525 1527 1528 1529 1531 1533 1535 1537 1539 1540 1540 1542 1543 1543 1545 1546 1548 1549 1550 1551 1552 1553 1554 1554
1482 1484 1488 1490 1492 1494 1497 1500 1502 1504 1507 1510 1513 1516 1520 1522 1524 1525 1527 1529 1531 1533 1535 1536 1537 1540 1541 1541 1542 1543 1545 1547 1548 1550 1551 1551 1552 1552
1479 1482 1485 1487 1488 1490 1493 1496 1499 1501 1504 1507 1510 1512 1515 1517 1520 1522 1524 1526 1529 1531 1532 1533 1535 1537 1538 1539 1540 1541 1542 1544 1545 1547 1548 1549 1550 1550
1478 1480 1482 1483 1485 1486 1489 1492 1496 1498 1500 1503 1505 1507 1510 1513 1516 1518 1521 1524 1527 1530 1531 1531 1532 1535 1536 1536 1538 1538 1540 1541 1542 1543 1544 1545 1546 1546
1477 1478 1479 1480 1482 1484 1486 1489 1492 1494 1496 1498 1499 1502 1505 1509 1512 1515 1518 1521 1524 1526 1528 1529 1530 1532 1534 1534 1535 1536 1538 1538 1539 1539 1540 1541 1542 1542
1475 1476 1477 1478 1479 1481 1483 1484 1486 1488 1490 1491 1494 1497 1500 1504 1508 1511 1514 1517 1519 1521 1524 1526 1527 1529 1531 1532 1532 1532 1534 1535 1536 1537 1537 1537 1538 1538
1472 1473 1474 1476 1477 1478 1480 1481 1482 1483 1484 1484 1486 1490 1494 1498 1503 1507 1510 1513 1515 1518 1520 1522 1523 1525 1527 1528 1528 1528 1529 1530 1532 1533 1533 1533 1534 1534
1469 1470 1472 1473 1474 1476 1477 1477 1478 1478 1478 1478 1480 1484 1489 1494 1499 1503 1506 1509 1511 1514 1517 1518 1520 1521 1522 1523 1525 1524 1525 1525 1527 1528 1528 1528 1529 1532
1465 1467 1469 1470 1472 1473 1473 1474 1475 1476 1476 1477 1478 1482 1487 1491 1495 1499 1503 1505 1508 1510 1512 1514 1515 1516 1517 1517 1520 1520 1520 1520 1520 1521 1521 1522 1523 1525
1463 1465 1467 1468 1469 1470 1471 1471 1472 1474 1475 1477 1479 1482 1485 1488 1492 1496 1499 1502 1504 1506 1507 1508 1509 1510 1512 1513 1514 1515 1515 1514 1513 1513 1514 1514 1515 1517
1462 1463 1465 1466 1467 1467 1468 1468 1468 1470 1472 1474 1477 1480 1482 1485 1488 1491 1495 1498 1500 1501 1501 1503 1505 1507 1507 1507 1507 1507 1510 1510 1509 1509 1509 1509 1508 1509
1459 1460 1462 1462 1463 1464 1464 1465 1465 1466 1468 1470 1473 1475 1478 1481 1484 1487 1490 1492 1494 1495 1496 1499 1500 1500 1500 1500 1500 1502 1505 1506 1506 1505 1505 1505 1504 1503
1455 1456 1457 1458 1459 1460 1460 1461 1462 1463 1464 1466 1468 1471 1474 1476 1479 1481 1484 1486 1488 1490 1492 1493 1494 1494 1494 1495 1496 1497 1499 1500 1500 1500 1500 1500 1500 1499